Location: Bastelaar
(51.0950°N, 3.8602°E)
Time: 05:55:37
(UTC+00:00)

CBERS-1 - Pass Details

Date: 18 November 2025
Orbit: 765 x 772 km, 98.8° (Epoch: 10 December)

Event Time Altitude Azimuth Distance (km) Brightness Sun altitude
Rises 16:27:23 0° 163° (SSE) 3,234 7.3 -5.7°
Reaches altitude 10° 16:29:41 10° 163° (SSE) 2,312 6.6 -6.0°
Maximum altitude 16:34:47 89° 251° (WSW) 781 4.1 -6.7°
Drops below altitude 10° 16:39:57 10° 344° (NNW) 2,330 6.5 -7.5°
Sets 16:42:16 0° 345° (NNW) 3,262 7.2 -7.8°
